Weather History for MMLO - November, 2011

Change the Weather History Date:

Saturday, November 19, 2011

  Actual Average Record
Temperature  
Mean Temperature 68 °F -  
Max Temperature 84 °F 77 °F 86 °F (2012)
Min Temperature 51 °F 45 °F 33 °F (2008)
Cooling Degree Days 2    
Growing Degree Days 18 (Base 50)    
Moisture  
Dew Point 45 °F    
Average Humidity 44    
Maximum Humidity 76    
Minimum Humidity 23    
Precipitation  
Precipitation 0.00 in - - ()
Sea Level Pressure  
Sea Level Pressure 30.11 in    
Wind  
Wind Speed 2 mph ()    
Max Wind Speed 8 mph    
Max Gust Speed -    
Visibility 8.7 miles    
Events      
Averages and records for this station are not official NWS values.
T = Trace of Precipitation, MM = Missing Value Source: Averaged Metar Reports

Daily Weather History Graph

Daily Weather History Graph

Search for Another Location

Airport or City:

Trip Planner

Search our weather history database for the weather conditions in past years. The results will help you decide how hot, cold, wet, or windy it might be!

Date:

Astronomy

Nov. 19, 2011 Rise Set
Actual Time 6:58 AM CST 6:03 PM CST
Civil Twilight 6:35 AM CST 6:27 PM CST
Nautical Twilight 6:08 AM CST 6:54 PM CST
Astronomical Twilight 5:41 AM CST 7:20 PM CST
Moon 1:07 AM CST (11/19) 1:41 PM CST (11/19)
Length of Visible Light 11h 52m
Length of Day
11h 05m
Last Quarter, 38% of the Moon is Illuminated
Nov 19
Last Quarter
Nov 25
New
Dec 2
First Quarter
Dec 10
Full
Dec 17
Last Quarter

Hourly Weather History & Observations

Time (CST) Temp. Dew Point Humidity Pressure Visibility Wind Dir Wind Speed Gust Speed Precip Events Conditions
3:57 AM 53.6 °F 42.8 °F 67% 30.24 in 8.0 mi Calm Calm - N/A   Clear
5:40 AM 51.8 °F 42.8 °F 71% 29.93 in 8.0 mi Calm Calm - N/A   Clear
6:42 AM 51.8 °F 44.6 °F 76% 30.27 in 8.0 mi Calm Calm - N/A   Scattered Clouds
7:42 AM 53.6 °F 44.6 °F 72% 30.27 in 8.0 mi NNE 6.9 mph - N/A   Scattered Clouds
8:45 AM 64.4 °F 46.4 °F 52% 29.99 in 8.0 mi Calm Calm - N/A   Clear
9:45 AM 71.6 °F 48.2 °F 43% 30.30 in 8.0 mi SSE 3.5 mph - N/A   Clear
10:45 AM 75.2 °F 48.2 °F 38% 30.27 in 8.0 mi Calm Calm - N/A   Partly Cloudy
11:44 AM 78.8 °F 46.4 °F 32% 29.89 in 10.0 mi WSW 5.8 mph - N/A   Partly Cloudy
12:42 PM 82.4 °F 46.4 °F 28% 30.24 in 10.0 mi West 6.9 mph - N/A   Partly Cloudy
1:44 PM 84.2 °F 44.6 °F 25% 30.18 in 10.0 mi West 3.5 mph - N/A   Scattered Clouds
2:44 PM 84.2 °F 44.6 °F 25% 29.78 in 10.0 mi South 5.8 mph - N/A   Scattered Clouds
3:43 PM 84.2 °F 42.8 °F 23% 30.15 in 10.0 mi SW 8.1 mph - N/A   Scattered Clouds
4:42 PM 82.4 °F 44.6 °F 26% 30.15 in 10.0 mi SW 4.6 mph - N/A   Scattered Clouds
5:42 PM 77.0 °F 42.8 °F 29% 29.74 in 10.0 mi SW 3.5 mph - N/A   Partly Cloudy
6:44 PM 69.8 °F 42.8 °F 38% 30.18 in 8.0 mi Calm Calm - N/A   Clear
7:44 PM 68.0 °F 44.6 °F 43% 30.21 in 8.0 mi Calm Calm - N/A   Clear
8:43 PM 66.2 °F 44.6 °F 46% 29.86 in 8.0 mi NE 5.8 mph - N/A   Clear
9:43 PM 66.2 °F 44.6 °F 46% 30.24 in 8.0 mi NE 6.9 mph - N/A   Clear
10:42 PM 62.6 °F 44.6 °F 52% 30.24 in 8.0 mi Calm Calm - N/A   Clear